Starlink 5684

operational
NORAD ID: 55453 Int'l Des: 2023-015 Owner: SPXS Country: US Constellation: starlink
LEOCIRCULAR

About Starlink 5684

Description loading...

Live Position

Loading 3D Globe...

Upcoming Passes

Altitude History

Altitude vs Time

uPlot chart will show altitude changes over time

Two-Line Element Set

1 55453U 23015E 25303.01439811 .00001770 00000-0 14611-3 0 9994
2 55453 43.0054 316.3374 0001261 261.6125 98.4575 15.02531865151090
Epoch: Oct 30, 2025 • Age: 33 hours

Current Status

Altitude 558.5 km
Velocity 7.59 km/s
Sub-Earth Point 15.49°N, 62.41°W
Launch Date Feb 2, 2023
Age 2.7 years
Type internet

Technical Details

Classification Payload
Mass 305.00 kg
Dry Mass 290.00 kg
Total Mass 305.00 kg
Length 0.20 m
Diameter 2.80 m
Span 9.00 m
Shape Box + pan
Manufacturer SPXS
Bus Type Starlink
Phase Status In Orbit
Owner/State SPXS/US

Large Constellations

Loading constellations...